| time (UTC) | temp C | wind direction | speed KPH | gust KPH | rain 1hr cm | rain 24hr cm | rain mn cm | humidity % | barometer mb |
| 20260504004505 | 16 | 292 | 27.4 | 41.8 | 0.00 | 0.00 | 0.00 | 65 | 1014.7 |
| 20260504003005 | 16 | 292 | 22.5 | 35.4 | 0.00 | 0.00 | 0.00 | 68 | 1014.4 |
| 20260504001504 | 16 | 292 | 22.5 | 35.4 | 0.00 | 0.00 | 0.00 | 68 | 1014.4 |
| 20260504000005 | 15 | 315 | 22.5 | 29.0 | 0.00 | 0.00 | 0.00 | 70 | 1014.3 |
| 20260503234505 | 15 | 315 | 22.5 | 29.0 | 0.00 | 0.00 | 0.00 | 70 | 1014.3 |
| 20260503233004 | 14 | 315 | 16.1 | 25.7 | 0.00 | 0.00 | 0.00 | 72 | 1014.4 |
| 20260503231505 | 14 | 315 | 16.1 | 25.7 | 0.00 | 0.00 | 0.00 | 72 | 1014.4 |
| 20260503230005 | 13 | 337 | 14.5 | 24.1 | 0.00 | 0.00 | 0.00 | 76 | 1014.0 |
| 20260503224504 | 13 | 337 | 14.5 | 24.1 | 0.00 | 0.00 | 0.00 | 76 | 1014.0 |
| 20260503223004 | 12 | 337 | 14.5 | 24.1 | 0.00 | 0.00 | 0.00 | 78 | 1013.8 |
| 20260503221504 | 12 | 337 | 14.5 | 24.1 | 0.00 | 0.00 | 0.00 | 78 | 1013.8 |
| 20260503220004 | 12 | 337 | 12.9 | 24.1 | 0.00 | 0.00 | 0.00 | 80 | 1013.6 |
| 20260503214505 | 12 | 337 | 12.9 | 24.1 | 0.00 | 0.00 | 0.00 | 80 | 1013.6 |
| 20260503213005 | 12 | 315 | 14.5 | 22.5 | 0.00 | 0.00 | 0.00 | 81 | 1013.4 |
| 20260503211504 | 12 | 315 | 14.5 | 22.5 | 0.00 | 0.00 | 0.00 | 81 | 1013.4 |
| 20260503210005 | 12 | 337 | 14.5 | 22.5 | 0.00 | 0.00 | 0.00 | 80 | 1013.1 |
| 20260503204504 | 12 | 337 | 14.5 | 22.5 | 0.00 | 0.00 | 0.00 | 80 | 1013.1 |
| 20260503203005 | 12 | 337 | 16.1 | 27.4 | 0.00 | 0.00 | 0.00 | 79 | 1013.0 |
| 20260503201504 | 12 | 337 | 16.1 | 27.4 | 0.00 | 0.00 | 0.00 | 79 | 1013.0 |
| 20260503200004 | 12 | 337 | 16.1 | 27.4 | 0.00 | 0.00 | 0.00 | 79 | 1013.1 |
| 20260503194504 | 12 | 337 | 16.1 | 27.4 | 0.00 | 0.00 | 0.00 | 79 | 1013.1 |
| 20260503193005 | 12 | 337 | 12.9 | 16.1 | 0.00 | 0.00 | 0.00 | 80 | 1013.0 |
| 20260503191505 | 12 | 337 | 12.9 | 16.1 | 0.00 | 0.00 | 0.00 | 80 | 1013.0 |
| 20260503190005 | 12 | 337 | 9.7 | 14.5 | 0.00 | 0.00 | 0.00 | 80 | 1012.9 |
| 20260503184504 | 12 | 337 | 9.7 | 14.5 | 0.00 | 0.00 | 0.00 | 80 | 1012.9 |
| 20260503183004 | 12 | 337 | 12.9 | 19.3 | 0.00 | 0.00 | 0.00 | 79 | 1012.7 |
| 20260503181505 | 12 | 337 | 12.9 | 19.3 | 0.00 | 0.00 | 0.00 | 79 | 1012.7 |
| 20260503180005 | 12 | 337 | 11.3 | 16.1 | 0.00 | 0.00 | 0.00 | 78 | 1013.0 |
| 20260503174505 | 12 | 337 | 11.3 | 16.1 | 0.00 | 0.00 | 0.00 | 78 | 1013.0 |
| 20260503173005 | 12 | 337 | 11.3 | 16.1 | 0.00 | 0.00 | 0.00 | 77 | 1013.1 |
| 20260503171505 | 12 | 337 | 11.3 | 16.1 | 0.00 | 0.00 | 0.00 | 77 | 1013.1 |
| 20260503081504 | 17 | 315 | 9.7 | 12.9 | 0.00 | 0.00 | 0.00 | 50 | 1012.7 |
| 20260503071506 | 18 | 292 | 20.9 | 29.0 | 0.00 | 0.00 | 0.00 | 44 | 1012.4 |
| 20260503054504 | 19 | 315 | 16.1 | 25.7 | 0.00 | 0.00 | 0.00 | 42 | 1012.3 |
| 20260503053004 | 19 | 292 | 24.1 | 33.8 | 0.00 | 0.00 | 0.00 | 42 | 1012.2 |
| 20260503051505 | 19 | 292 | 24.1 | 33.8 | 0.00 | 0.00 | 0.00 | 42 | 1012.2 |
| 20260503050005 | 19 | 292 | 20.9 | 35.4 | 0.00 | 0.00 | 0.00 | 41 | 1012.2 |
| 20260503044505 | 19 | 292 | 20.9 | 35.4 | 0.00 | 0.00 | 0.00 | 41 | 1012.2 |
| 20260503043004 | 19 | 315 | 22.5 | 35.4 | 0.00 | 0.00 | 0.00 | 42 | 1012.5 |
| 20260503041504 | 19 | 315 | 22.5 | 35.4 | 0.00 | 0.00 | 0.00 | 42 | 1012.5 |
| 20260503040004 | 18 | 292 | 20.9 | 33.8 | 0.00 | 0.00 | 0.00 | 43 | 1013.0 |
| 20260503034505 | 18 | 292 | 20.9 | 33.8 | 0.00 | 0.00 | 0.00 | 43 | 1013.0 |
| 20260503033006 | 18 | 315 | 20.9 | 32.2 | 0.00 | 0.00 | 0.00 | 47 | 1013.2 |
| 20260503031505 | 18 | 315 | 20.9 | 32.2 | 0.00 | 0.00 | 0.00 | 47 | 1013.2 |
| 20260503030004 | 18 | 292 | 24.1 | 41.8 | 0.00 | 0.00 | 0.00 | 47 | 1013.4 |
| 20260503024504 | 18 | 292 | 24.1 | 41.8 | 0.00 | 0.00 | 0.00 | 47 | 1013.4 |
| 20260503023005 | 17 | 292 | 22.5 | 33.8 | 0.00 | 0.00 | 0.00 | 52 | 1013.6 |
| 20260503021505 | 17 | 292 | 22.5 | 33.8 | 0.00 | 0.00 | 0.00 | 52 | 1013.6 |
| 20260503020005 | 17 | 292 | 24.1 | 35.4 | 0.00 | 0.00 | 0.00 | 57 | 1013.7 |
| 20260503014505 | 17 | 292 | 24.1 | 35.4 | 0.00 | 0.00 | 0.00 | 57 | 1013.7 |
| 20260503013004 | 16 | 292 | 25.7 | 40.2 | 0.00 | 0.00 | 0.00 | 58 | 1013.7 |
| 20260503011506 | 16 | 292 | 25.7 | 40.2 | 0.00 | 0.00 | 0.00 | 58 | 1013.7 |
| 20260503010005 | 16 | 292 | 24.1 | 38.6 | 0.00 | 0.00 | 0.00 | 62 | 1013.7 |